This is the latest recevied weather packets stored in our database for station/object SP4IM-13. If no packets are shown the sender has not sent any weather packets the latest 1 day(s).
| Time | Temp. | Humidity | Pressure | Rain* | Wind** | Luminosity | Snow |
|---|---|---|---|---|---|---|---|
| 1777963805 | 17.78° C | 42% | 1009 hPa | - | 1.34 m/s, 116° | - | - |
| 1777963203 | 17.22° C | 42% | 1009 hPa | - | 1.34 m/s, 111° | - | - |
| 1777962608 | 17.22° C | 43% | 1009 hPa | - | 1.34 m/s, 115° | - | - |
| 1777962003 | 16.67° C | 45% | 1009 hPa | - | 1.34 m/s, 123° | - | - |
| 1777961404 | 16.67° C | 46% | 1009 hPa | - | 1.34 m/s, 128° | - | - |
| 1777960809 | 16.11° C | 49% | 1009 hPa | - | 1.34 m/s, 116° | - | - |
| 1777960204 | 15.56° C | 52% | 1009 hPa | - | 1.34 m/s, 120° | - | - |
| 1777959603 | 15.56° C | 56% | 1009 hPa | - | 1.34 m/s, 114° | - | - |
| 1777959004 | 15° C | 62% | 1009 hPa | - | 1.79 m/s, 119° | - | - |
| 1777958405 | 14.44° C | 69% | 1009 hPa | - | 1.34 m/s, 120° | - | - |
| 1777957804 | 14.44° C | 72% | 1009 hPa | - | 1.34 m/s, 124° | - | - |
| 1777957205 | 15.56° C | 74% | 1009 hPa | - | 1.34 m/s, 116° | - | - |
| 1777956604 | 13.89° C | 75% | 1009 hPa | - | 0.89 m/s, 116° | - | - |
| 1777956005 | 13.33° C | 76% | 1009 hPa | - | 0.89 m/s, 106° | - | - |
| 1777955407 | 12.78° C | 77% | 1009 hPa | - | 0.89 m/s, 116° | - | - |
| 1777954805 | 12.22° C | 78% | 1009 hPa | - | 0.89 m/s, 114° | - | - |
| 1777954204 | 12.22° C | 79% | 1009 hPa | - | 0.89 m/s, 116° | - | - |
| 1777953607 | 12.22° C | 79% | 1009 hPa | - | 0.89 m/s, 108° | - | - |
| 1777953004 | 11.67° C | 79% | 1009 hPa | - | 0.89 m/s, 113° | - | - |
| 1777952404 | 11.67° C | 79% | 1009 hPa | - | 0.89 m/s, 107° | - | - |
| 1777951805 | 11.67° C | 79% | 1009 hPa | - | 1.34 m/s, 113° | - | - |
| 1777951205 | 11.67° C | 79% | 1009 hPa | - | 0.89 m/s, 110° | - | - |
| 1777950607 | 11.67° C | 78% | 1009 hPa | - | 0.89 m/s, 102° | - | - |
| 1777950007 | 11.67° C | 78% | 1009 hPa | - | 0.45 m/s, 90° | - | - |
| 1777949403 | 12.78° C | 78% | 1009 hPa | - | 0.89 m/s, 105° | - | - |
* Rain since midnight (hover to see other rain measurements)
** Current wind speed in m/s (hover to see current wind gust speed)